Tracking 29892 objects as of 21-Nov-2024
HD Live streaming from Space Station
objects crossing your sky now

COSMOS 1823 DEB

Track COSMOS 1823 DEB now!
10-day predictions


NORAD ID: 18752
Int'l Code: 1987-020AD
Perigee: 1,381.3 km
Apogee: 1,477.0 km
Inclination: 73.9 °
Period: 114.3 minutes
Semi major axis: 7800 km
RCS: 0.0632 m2 (small)
Launch date: February 20, 1987
Source: Commonwealth of Independent States (former USSR) (CIS)
Launch site: PLESETSK MISSILE AND SPACE COMPLEX (PKMTR)

Note: This is SATELLITE DEBRIS
Your satellite tracking list
Your tracking list is empty




NASA's NSSDC Master Catalog

Two Line Element Set (TLE):
1 18752U 87020AD  24324.67782542  .00000160  00000-0  10060-2 0  9992
2 18752  73.9200 198.1571 0061287 104.0074 289.1132 12.60225170697080
Source of the keplerian elements: AFSPC